Home   Weather   Graz   Past weeks
Flag for Austria

Past Weather in Graz, Styria, Austria — Yesterday and Last 2 Weeks

Now
55 °F

Sunny.


Feels Like: 52 °F
Forecast: 47 / 31 °F
Wind: 12 mph from Southeast

Location: Graz-Thalerhof-Flughafen

Current Time: Feb 18, 2020 at 4:45:56 pm

Latest Report: Feb 18, 2020 at 3:50 pm


Visibility: 10 mi

Pressure: 30.21 "Hg

Humidity: 47%

Dew Point: 36 °F

Location of GrazLocation

Past Weather in Graz — Graph

°F

Graz Temperature Yesterday

Maximum temperature yesterday: 59 °F (at 1:50 pm)
Minimum temperature yesterday: 28 °F (at 4:20 am)
Average temperature yesterday: 42 °F

High & Low Weather Summary for the Past Weeks

 TemperatureHumidityPressure
High61 °F (Feb 10, 1:20 pm)100% (Feb 9, 1:50 am)30.39 "Hg (Feb 9, 1:50 am)
Low19 °F (Feb 8, 7:50 am)20% (Feb 6, 1:20 pm)29.45 "Hg (Feb 4, 7:50 am)
Average39 °F67%30.08 "Hg
* Reported Feb 3 3:20 pm — Feb 18 3:20 pm, Graz. Weather by CustomWeather, © 2020

Note: Actual official high and low records may vary slightly from our data, if they occured in-between our weather recording intervals... More about our weather records

Graz Weather History for the Previous 24 Hours

Scroll right to see more
 ConditionsComfort  
Time TempWeatherWind HumidityBarometerVisibility
3:20 pm
Tue, Feb 18
55 °FSunny.10 mph47%30.21 "Hg10 mi
2:50 pm57 °FPassing clouds.6 mph25%30.21 "HgN/A
2:20 pm57 °FPassing clouds.5 mph27%30.21 "HgN/A
1:50 pm57 °FPassing clouds.7 mph33%30.21 "HgN/A
1:20 pm57 °FSunny.3 mph29%30.24 "Hg10 mi
12:50 pm55 °FPassing clouds.6 mph36%30.24 "HgN/A
12:20 pm55 °FPassing clouds.6 mph44%30.24 "HgN/A
11:50 am54 °FPassing clouds.7 mph58%30.24 "HgN/A
11:20 am54 °FScattered clouds.7 mph58%30.27 "HgN/A
10:50 am52 °FScattered clouds.5 mph62%30.27 "HgN/A
10:20 am50 °FPartly sunny.6 mph67%30.27 "HgN/A
9:50 am48 °FPartly sunny.5 mph71%30.24 "HgN/A
9:20 am46 °FPartly sunny.3 mph76%30.24 "HgN/A
8:50 am45 °FPartly sunny.2 mph76%30.24 "HgN/A
8:20 am41 °FPartly sunny.2 mph87%30.24 "HgN/A
7:50 am39 °FPartly sunny.5 mph87%30.21 "HgN/A
7:20 am39 °FPartly sunny.2 mph87%30.21 "HgN/A
6:50 am41 °FPassing clouds.1 mph81%30.18 "HgN/A
6:20 am41 °FPassing clouds.2 mph81%30.18 "HgN/A
5:50 am41 °FPassing clouds.2 mph81%30.18 "HgN/A
5:20 am41 °FPassing clouds.2 mph81%30.18 "HgN/A
4:50 am41 °FOvercast.2 mph81%30.15 "HgN/A
4:20 am41 °FPassing clouds.1 mph81%30.15 "HgN/A
3:50 am41 °FOvercast.2 mph81%30.12 "HgN/A
3:20 am41 °FPassing clouds.3 mph81%30.12 "HgN/A
2:50 am41 °FOvercast.3 mph81%30.12 "HgN/A
2:20 am39 °FPassing clouds.2 mph87%30.12 "HgN/A
1:50 am39 °FPassing clouds.2 mph81%30.12 "HgN/A
1:20 am41 °FPassing clouds.2 mph76%30.09 "HgN/A
12:50 am41 °FPassing clouds.2 mph81%30.12 "HgN/A
12:20 am39 °FPassing clouds.6 mph81%30.09 "HgN/A
11:50 pm
Mon, Feb 17
39 °FOvercast.3 mph81%30.09 "HgN/A
11:20 pm37 °FOvercast.2 mph81%30.09 "HgN/A
10:50 pm39 °FPassing clouds.3 mph81%30.09 "HgN/A
10:20 pm39 °FPassing clouds.1 mph81%30.07 "HgN/A
9:50 pm37 °FPassing clouds.1 mph81%30.07 "HgN/A
9:20 pm37 °FPassing clouds.1 mph81%30.07 "HgN/A
8:50 pm41 °FClear.2 mph76%30.04 "HgN/A
8:20 pm41 °FClear.1 mph76%30.07 "HgN/A
7:50 pm46 °FClear.2 mph66%30.04 "HgN/A
7:20 pm45 °FClear.1 mph66%30.04 "HgN/A
6:50 pm48 °FClear.2 mph62%30.04 "Hg10 mi
6:20 pm52 °FClear.2 mph50%30.04 "Hg10 mi
5:50 pm54 °FClear.3 mph47%30.01 "Hg10 mi
5:20 pm57 °FSunny.2 mph44%30.01 "Hg10 mi
4:50 pm59 °FSunny.1 mph42%30.01 "Hg10 mi
4:20 pm59 °FSunny.1 mph42%30.01 "Hg10 mi
Weather by CustomWeather, © 2020

See weather overview

Advertising